Погода в Просторе

Украина / Запорожская область     47°05′22″N   36°12′46″E
темп.,
°C
ветер,
м/с
пор.,
м/с
влажн.,
%
обл.,
%
осадки,
мм/ч
давл.,
гПа
погр.,
м
30 июня, чт
чт3000:00+21св49555 0.0 1015161
03:00+20в496561 0.0 1015151
06:00+19в48614 0.0 1015187
09:00+26вюв453557 0.0 1015683
12:00+29юв323081 0.0 10141639
15:00+29всв233196 0.0 10132155
18:00+24зсз2353100 0.0 1014121
21:00+20всв484729 0.0 1014178
1 июля, пт
пт100:00+21св475254 0.0 1015167
03:00+18св48630 0.0 1015125
06:00+18св36590 0.0 1015120
09:00+25ссв45374 0.0 10151116
12:00+28с56320 0.0 10142313
15:00+29ссв66280 0.0 10132588
18:00+28ссв67280 0.0 10132492
21:00+22ссв713420 0.0 1015549
2 июля, сб
сб200:00+18св613510 0.0 1017379
03:00+14св511630 0.0 1018306
06:00+14св48550 0.0 1020211
09:00+20ссв68370 0.0 10201254
12:00+24ссв67290 0.0 10201800
15:00+26ссв56260 0.0 10192205
18:00+26ссв67270 0.0 10182274
21:00+19с48440 0.0 1020136
3 июля, вс
вс300:00+16ссв46540 0.0 102074
03:00+15с33590 0.0 102040
06:00+16с36590 0.0 1020133
09:00+23с45420 0.0 10201202
12:00+27с45324 0.0 10192284
15:00+29с45272 0.0 10172860
18:00+29с342833 0.0 10162379
21:00+21ю235890 0.0 101771
4 июля, пн
пн400:00+21ссз11559 0.0 101712
03:00+19с33585 0.0 101728
06:00+21ссв225517 0.0 101741
09:00+28ссз33355 0.0 10171456
12:00+31ссз322870 0.0 10162916
15:00+32ссв2325100 0.0 10142857
18:00+28св6839100 0.0 1015613
21:00+22св496352 0.1 1016204